GW5296 Weather Reports


Display with metric or nautical units.
time (UTC)temp
F
wind
direction
speed
MPH
gust
MPH
rain 1hr
in
rain 24hr
in
rain mn
in
humidity
%
barometer
mb
20260504070113 96 171 5.0 7.0 0.00 0.00 0.00 56 1009.0
20260504060112 94 180 0.0 0.0 0.00 0.00 0.00 57 1010.0
20260504050612 92 225 5.0 7.0 0.00 0.00 0.00 61 1010.0
20260504050113 91 208 1.0 1.0 0.00 0.00 0.00 61 1010.0
20260504045613 91 232 2.0 2.0 0.00 0.00 0.00 63 1010.0
20260504045111 91 116 2.0 2.0 0.00 0.00 0.00 63 1010.0
20260504044611 91 216 4.0 4.0 0.00 0.00 0.00 61 1010.0
20260504044111 91 232 6.0 8.0 0.00 0.00 0.00 62 1010.0
20260504043611 90 241 4.0 6.0 0.00 0.00 0.00 62 1010.0
20260504043112 89 150 4.0 4.0 0.00 0.00 0.00 64 1010.0
20260504042613 89 159 4.0 6.0 0.00 0.00 0.00 64 1010.0
20260504042114 88 176 3.0 3.0 0.00 0.00 0.00 64 1010.0
20260504041615 89 148 6.0 8.0 0.00 0.00 0.00 65 1011.0
20260504041111 89 140 5.0 7.0 0.00 0.00 0.00 64 1010.0
20260504040612 89 204 5.0 6.0 0.00 0.00 0.00 63 1010.0
20260504040111 89 136 3.0 3.0 0.00 0.00 0.00 64 1010.0
20260504035612 89 216 3.0 4.0 0.00 0.00 0.00 64 1010.0
20260504035111 88 181 1.0 1.0 0.00 0.00 0.00 65 1011.0
20260504034611 87 137 3.0 3.0 0.00 0.00 0.00 66 1011.0
20260504034111 88 161 6.0 7.0 0.00 0.00 0.00 65 1011.0
20260504033611 88 223 1.0 1.0 0.00 0.00 0.00 64 1011.0
20260504033113 87 173 4.0 6.0 0.00 0.00 0.00 65 1011.0
20260504032611 86 168 2.0 2.0 0.00 0.00 0.00 67 1011.0
20260504032111 86 178 4.0 7.0 0.00 0.00 0.00 67 1011.0
20260504031611 87 188 0.0 1.0 0.00 0.00 0.00 66 1011.0
20260504031114 86 103 2.0 2.0 0.00 0.00 0.00 65 1011.0
20260504030611 85 154 2.0 3.0 0.00 0.00 0.00 65 1010.0
20260504030111 86 187 3.0 4.0 0.00 0.00 0.00 65 1010.0
20260504025611 85 158 3.0 3.0 0.00 0.00 0.00 65 1010.0
20260504025111 84 171 2.0 2.0 0.00 0.00 0.00 67 1010.0
20260504024611 85 171 4.0 4.0 0.00 0.00 0.00 67 1010.0
20260504024111 84 128 2.0 3.0 0.00 0.00 0.00 68 1010.0
20260504023611 84 153 1.0 2.0 0.00 0.00 0.00 68 1010.0
20260504023112 83 176 3.0 3.0 0.00 0.00 0.00 69 1010.0
20260504022611 82 181 0.0 1.0 0.00 0.00 0.00 70 1010.0
20260504022111 82 134 1.0 1.0 0.00 0.00 0.00 71 1010.0
20260504021611 82 145 1.0 1.0 0.00 0.00 0.00 72 1010.0
20260504021112 82 105 6.0 7.0 0.00 0.00 0.00 72 1010.0
20260504020612 81 127 2.0 2.0 0.00 0.00 0.00 72 1010.0
20260504020112 82 116 3.0 3.0 0.00 0.00 0.00 72 1010.0
20260504015612 81 176 1.0 1.0 0.00 0.00 0.00 73 1010.0
20260504015112 80 144 5.0 6.0 0.00 0.00 0.00 74 1010.0
20260504014611 80 117 3.0 4.0 0.00 0.00 0.00 75 1010.0
20260504014112 80 116 2.0 3.0 0.00 0.00 0.00 75 1009.0
20260504013612 80 131 2.0 2.0 0.00 0.00 0.00 76 1009.0
20260504013111 79 126 2.0 3.0 0.00 0.00 0.00 76 1009.0
20260504012611 79 74 1.0 2.0 0.00 0.00 0.00 76 1009.0
20260504012111 79 117 2.0 3.0 0.00 0.00 0.00 77 1009.0
20260504011611 78 74 1.0 1.0 0.00 0.00 0.00 77 1009.0
20260504011112 78 75 2.0 3.0 0.00 0.00 0.00 77 1009.0
20260504010612 78 87 1.0 2.0 0.00 0.00 0.00 78 1009.0
20260504010112 78 149 0.0 1.0 0.00 0.00 0.00 78 1009.0
20260504005611 78 146 0.0 0.0 0.00 0.00 0.00 79 1009.0
20260504005112 77 73 1.0 1.0 0.00 0.00 0.00 79 1009.0
20260504004612 77 57 6.0 6.0 0.00 0.00 0.00 79 1009.0
20260504004111 77 41 1.0 2.0 0.00 0.00 0.00 80 1009.0
20260504003612 77 74 1.0 1.0 0.00 0.00 0.00 80 1009.0
20260504003111 77 81 1.0 1.0 0.00 0.00 0.00 81 1009.0
20260504002611 77 16 3.0 3.0 0.00 0.00 0.00 80 1009.0
20260504002113 77 88 0.0 1.0 0.00 0.00 0.00 80 1008.0
20260504001611 77 13 1.0 1.0 0.00 0.00 0.00 79 1008.0
20260504001112 77 248 0.0 0.0 0.00 0.00 0.00 79 1008.0
20260504000611 77 248 1.0 1.0 0.00 0.00 0.00 79 1008.0
20260504000112 77 244 1.0 2.0 0.00 0.00 0.00 79 1008.0
20260503235612 77 239 1.0 1.0 0.00 0.00 0.00 79 1008.0
20260503235113 78 228 0.0 1.0 0.00 0.00 0.00 79 1008.0
20260503234611 78 193 0.0 0.0 0.00 0.00 0.00 78 1008.0
20260503234111 78 161 0.0 0.0 0.00 0.00 0.00 78 1008.0
20260503233611 78 172 0.0 0.0 0.00 0.00 0.00 77 1008.0
20260503233112 78 163 1.0 1.0 0.00 0.00 0.00 77 1008.0
20260503232611 78 160 2.0 2.0 0.00 0.00 0.00 77 1008.0
20260503232112 79 242 0.0 0.0 0.00 0.00 0.00 77 1008.0
20260503231611 79 242 0.0 0.0 0.00 0.00 0.00 76 1008.0
20260503231112 79 242 1.0 1.0 0.00 0.00 0.00 76 1008.0
20260503230612 79 241 1.0 1.0 0.00 0.00 0.00 76 1008.0
20260503230111 79 241 1.0 1.0 0.00 0.00 0.00 75 1008.0
20260503225611 80 217 2.0 2.0 0.00 0.00 0.00 75 1008.0
20260503225112 80 229 4.0 4.0 0.00 0.00 0.00 75 1008.0
20260503224611 80 219 3.0 4.0 0.00 0.00 0.00 75 1008.0
20260503224111 79 197 1.0 2.0 0.00 0.00 0.00 75 1007.0
20260503223611 79 182 2.0 3.0 0.00 0.00 0.00 75 1007.0
20260503223111 79 188 3.0 4.0 0.00 0.00 0.00 76 1008.0
20260503222611 79 193 3.0 3.0 0.00 0.00 0.00 76 1007.0
20260503222111 79 183 1.0 1.0 0.00 0.00 0.00 76 1007.0
20260503221611 78 199 1.0 1.0 0.00 0.00 0.00 77 1008.0
20260503221111 78 197 1.0 1.0 0.00 0.00 0.00 77 1007.0
20260503220611 78 172 0.0 0.0 0.00 0.00 0.00 77 1008.0
20260503220115 78 195 0.0 0.0 0.00 0.00 0.00 76 1008.0
20260503215611 78 191 0.0 0.0 0.00 0.00 0.00 76 1008.0
20260503215111 78 195 0.0 0.0 0.00 0.00 0.00 76 1008.0
20260503214612 78 160 0.0 0.0 0.00 0.00 0.00 75 1008.0
20260503214112 78 180 0.0 0.0 0.00 0.00 0.00 75 1008.0
20260503213612 78 177 0.0 0.0 0.00 0.00 0.00 74 1008.0
20260503213112 78 152 0.0 0.0 0.00 0.00 0.00 74 1008.0
20260503212611 78 182 0.0 0.0 0.00 0.00 0.00 75 1008.0
20260503212111 78 181 0.0 0.0 0.00 0.00 0.00 75 1008.0
20260503211611 78 173 1.0 2.0 0.00 0.00 0.00 75 1008.0
20260503211111 78 182 1.0 1.0 0.00 0.00 0.00 76 1008.0
20260503210611 78 155 2.0 2.0 0.00 0.00 0.00 76 1008.0
20260503210111 78 196 0.0 0.0 0.00 0.00 0.00 74 1009.0
20260503205611 79 214 0.0 0.0 0.00 0.00 0.00 74 1009.0
20260503205111 78 265 2.0 2.0 0.00 0.00 0.00 74 1008.0
20260503204612 78 268 0.0 0.0 0.00 0.00 0.00 74 1009.0
20260503204111 78 147 1.0 1.0 0.00 0.00 0.00 74 1009.0
20260503203612 78 135 4.0 4.0 0.00 0.00 0.00 74 1009.0
20260503203111 78 196 1.0 1.0 0.00 0.00 0.00 74 1009.0
20260503202611 78 229 3.0 3.0 0.00 0.00 0.00 73 1009.0
20260503202113 78 294 4.0 7.0 0.00 0.00 0.00 73 1009.0
20260503201612 78 265 4.0 4.0 0.00 0.00 0.00 73 1009.0
20260503201111 78 224 3.0 3.0 0.00 0.00 0.00 73 1009.0
20260503200611 78 259 3.0 3.0 0.00 0.00 0.00 73 1009.0
20260503200111 79 254 2.0 2.0 0.00 0.00 0.00 73 1009.0
20260503195611 79 221 1.0 1.0 0.00 0.00 0.00 72 1010.0
20260503195111 79 228 1.0 1.0 0.00 0.00 0.00 72 1010.0
20260503194611 79 229 1.0 1.0 0.00 0.00 0.00 72 1010.0
20260503194111 79 223 0.0 1.0 0.00 0.00 0.00 72 1010.0
20260503193611 79 228 1.0 2.0 0.00 0.00 0.00 72 1010.0
20260503193111 79 212 0.0 0.0 0.00 0.00 0.00 72 1010.0
20260503192611 79 208 0.0 0.0 0.00 0.00 0.00 72 1010.0
20260503192112 79 200 0.0 0.0 0.00 0.00 0.00 72 1010.0
20260503191611 79 178 1.0 1.0 0.00 0.00 0.00 72 1010.0
20260503191112 79 168 2.0 3.0 0.00 0.00 0.00 71 1010.0
20260503190612 79 126 3.0 3.0 0.00 0.00 0.00 71 1010.0
20260503190112 79 174 1.0 1.0 0.00 0.00 0.00 72 1010.0
20260503185612 79 189 2.0 2.0 0.00 0.00 0.00 72 1010.0
20260503185112 79 102 4.0 6.0 0.00 0.00 0.00 72 1010.0
20260503184611 79 120 6.0 7.0 0.00 0.00 0.00 72 1011.0
20260503184111 79 122 3.0 4.0 0.00 0.00 0.00 72 1011.0
20260503183612 79 77 0.0 1.0 0.00 0.00 0.00 72 1011.0
20260503183111 79 98 1.0 3.0 0.00 0.00 0.00 72 1011.0
20260503182612 79 61 6.0 8.0 0.00 0.00 0.00 73 1011.0
20260503182112 79 77 3.0 3.0 0.00 0.00 0.00 73 1011.0
20260503181611 79 40 4.0 4.0 0.00 0.00 0.00 73 1011.0
20260503181116 79 88 3.0 6.0 0.00 0.00 0.00 74 1011.0
20260503180611 79 46 4.0 7.0 0.00 0.00 0.00 75 1011.0
20260503180112 79 47 8.0 15.0 0.00 0.00 0.00 75 1011.0
20260503175611 80 71 11.0 16.0 0.00 0.00 0.00 74 1012.0
20260503175112 80 53 4.0 4.0 0.00 0.00 0.00 74 1012.0
20260503174611 81 55 4.0 9.0 0.00 0.00 0.00 74 1011.0
20260503174112 81 83 2.0 3.0 0.00 0.00 0.00 73 1011.0
20260503173611 81 55 3.0 6.0 0.00 0.00 0.00 72 1011.0
20260503173112 81 80 2.0 4.0 0.00 0.00 0.00 71 1011.0
20260503172611 81 61 1.0 1.0 0.00 0.00 0.00 71 1011.0
20260503172112 81 117 0.0 2.0 0.00 0.00 0.00 72 1010.0
20260503171611 81 97 5.0 9.0 0.00 0.00 0.00 72 1011.0
20260503171111 81 19 6.0 8.0 0.00 0.00 0.00 72 1010.0
20260503170611 80 74 6.0 8.0 0.00 0.00 0.00 72 1010.0
20260503170112 80 59 6.0 8.0 0.00 0.00 0.00 72 1010.0
20260503160112 86 232 7.0 8.0 0.00 0.00 0.00 62 1008.0
20260503150613 87 245 5.0 7.0 0.00 0.00 0.00 59 1007.0
20260503150115 87 190 7.0 9.0 0.00 0.00 0.00 60 1007.0
20260503140115 91 251 9.0 14.0 0.00 0.00 0.00 59 1006.0
20260503131115 94 225 7.0 9.0 0.00 0.00 0.00 53 1006.0
20260503130611 95 214 3.0 7.0 0.00 0.00 0.00 52 1006.0
20260503130112 95 243 6.0 8.0 0.00 0.00 0.00 51 1005.0
20260503120113 98 274 2.0 2.0 0.00 0.00 0.00 49 1004.0
20260503110621 101 268 3.0 7.0 0.00 0.00 0.00 44 1004.0
20260503110113 101 245 2.0 3.0 0.00 0.00 0.00 44 1004.0
20260503100113 102 245 1.0 1.0 0.00 0.00 0.00 43 1005.0
20260503090111 102 237 6.0 8.0 0.00 0.00 0.00 44 1005.0
20260503081612 100 323 2.0 2.0 0.00 0.00 0.00 48 1006.0
20260503081111 100 238 1.0 1.0 0.00 0.00 0.00 46 1007.0
20260503080614 100 177 5.0 6.0 0.00 0.00 0.00 46 1006.0
20260503080111 100 147 3.0 3.0 0.00 0.00 0.00 47 1007.0